2E0SQA Weather Reports


time (UTC)temp
F
wind
direction
speed
knots
gust
knots
rain 1hr
in
rain 24hr
in
rain mn
in
humidity
%
barometer
mb
20260506080709 47 40 0.0 0.9 0.00 0.00 0.00 72 1015.1
20260506080652 47 133 0.0 0.9 0.00 0.00 0.00 73 1015.1
20260506073206 45 103 0.0 0.0 0.00 0.00 0.00 75 1015.1
20260506072704 45 59 0.0 0.0 0.00 0.00 0.00 75 1015.1
20260506072428 44 36 0.0 0.0 0.00 0.00 0.00 75 1015.0
20260506071700 44 64 0.0 1.7 0.00 0.00 0.00 76 1015.1
20260506071428 44 62 0.0 1.7 0.00 0.00 0.00 75 1015.1
20260506070700 44 43 0.0 0.0 0.00 0.00 0.00 76 1015.0
20260506070158 44 113 0.0 0.0 0.00 0.00 0.00 76 1015.0
20260506062149 44 54 0.0 0.0 0.00 0.00 0.00 79 1014.8
20260506061649 44 37 0.0 0.0 0.00 0.00 0.00 80 1014.8
20260506061149 44 124 0.0 0.0 0.00 0.00 0.00 81 1014.7
20260506060649 44 54 0.0 0.0 0.00 0.00 0.00 81 1014.6
20260506060149 44 73 0.0 0.0 0.00 0.00 0.00 82 1014.6
20260506050851 0 0.0 0.0 0.00 0.00 0.00 1014.5
20260506050615 0 0.0 0.0 0.00 0.00 0.00 1014.5
20260506044656 0 0.0 0.0 0.00 0.00 0.00 1014.5
20260506044156 0 0.0 0.0 0.00 0.00 0.00 1014.5
20260506043649 0 0.0 0.0 0.00 0.00 0.00 1014.5
20260506043150 0 0.0 0.0 0.00 0.00 0.00 1014.5
20260506042650 0 0.0 0.0 0.00 0.00 0.00 1014.5
20260506042147 0 0.0 0.0 0.00 0.00 0.00 1014.5
20260506041638 43 0.0 0.0 0.00 0.00 0.00 82 1014.6
20260506041140 43 80 0.0 0.0 0.00 0.00 0.00 82 1014.6
20260506041049 43 80 0.0 0.0 0.00 0.00 0.00 82 1014.6
20260506040108 44 61 0.0 0.0 0.00 0.00 0.00 83 1014.6
20260506035550 44 55 0.0 0.0 0.00 0.00 0.00 83 1014.7
20260506035045 44 62 0.0 0.0 0.00 0.00 0.00 83 1014.6
20260506034539 44 101 0.0 0.0 0.00 0.00 0.00 83 1014.7
20260506034257 44 54 0.0 0.0 0.00 0.00 0.00 83 1014.6
20260506033527 44 57 0.0 0.0 0.00 0.00 0.00 83 1014.7
20260506033021 44 55 0.0 0.0 0.00 0.00 0.00 82 1014.7
20260506032514 44 37 0.0 0.0 0.00 0.00 0.00 82 1014.7
20260506032458 44 142 0.0 0.0 0.00 0.00 0.00 82 1014.7
20260506031504 44 62 0.0 0.0 0.00 0.00 0.00 82 1014.7
20260506030957 44 99 0.0 0.0 0.00 0.00 0.00 82 1014.8
20260506030450 44 68 0.0 0.0 0.00 0.00 0.00 82 1014.8
20260506025943 44 40 0.0 0.0 0.00 0.00 0.00 82 1014.7
20260506025438 44 95 0.0 0.0 0.00 0.00 0.00 82 1014.7
20260506024934 44 120 0.0 0.0 0.00 0.00 0.00 83 1014.7
20260506024427 45 20 0.0 0.0 0.00 0.00 0.00 84 1014.8
20260506023920 45 70 0.0 0.0 0.00 0.00 0.00 84 1014.7
20260506023415 44 65 0.0 0.0 0.00 0.00 0.00 84 1014.7
20260506022910 44 71 0.0 0.0 0.00 0.00 0.00 84 1014.8
20260506022403 44 71 0.0 0.0 0.00 0.00 0.00 84 1014.7
20260506021857 44 66 0.0 0.0 0.00 0.00 0.00 85 1014.6
20260506021352 44 75 0.0 0.0 0.00 0.00 0.00 85 1014.6
20260506020849 44 40 0.0 0.0 0.00 0.00 0.00 85 1014.7
20260506020339 44 61 0.0 0.0 0.00 0.00 0.00 85 1014.6
20260506015834 45 113 0.0 0.0 0.00 0.00 0.00 84 1014.6
20260506015604 45 92 0.0 0.0 0.00 0.00 0.00 83 1014.6
20260506014823 45 65 0.0 0.0 0.00 0.00 0.00 82 1014.7
20260506014315 45 64 0.0 0.0 0.00 0.00 0.00 81 1014.7
20260506013809 46 105 0.0 0.0 0.00 0.00 0.00 81 1014.7
20260506013303 46 74 0.0 0.0 0.00 0.00 0.00 80 1014.6
20260506012755 46 60 0.0 0.0 0.00 0.00 0.00 80 1014.7
20260506012250 46 82 0.0 0.0 0.00 0.00 0.00 79 1014.7
20260506012230 46 98 0.0 0.0 0.00 0.00 0.00 79 1014.7
20260506011240 46 57 0.0 0.0 0.00 0.00 0.00 79 1014.8
20260506010732 46 58 0.0 0.0 0.00 0.00 0.00 79 1014.8
20260506010227 46 99 0.0 0.0 0.00 0.00 0.00 80 1014.8
20260506005722 46 94 0.0 0.0 0.00 0.00 0.00 80 1014.8
20260506005214 46 71 0.0 0.0 0.00 0.00 0.00 80 1014.8
20260506004708 46 96 0.0 0.0 0.00 0.00 0.00 80 1014.7
20260506004203 46 55 0.0 0.0 0.00 0.00 0.00 80 1014.7
20260506003656 46 80 0.0 0.0 0.00 0.00 0.00 80 1014.8
20260506003151 46 61 0.0 0.0 0.00 0.00 0.00 80 1014.8
20260506002644 46 46 0.0 0.0 0.00 0.00 0.00 80 1014.8
20260506002358 46 120 0.0 0.0 0.00 0.00 0.00 81 1014.9
20260506001633 46 47 0.0 0.0 0.00 0.00 0.00 81 1014.9
20260506001359 46 82 0.0 0.0 0.00 0.00 0.00 81 1014.8
20260506000842 46 27 0.0 0.0 0.00 0.00 0.00 81 1014.7
20260506000114 46 124 0.0 0.0 0.00 0.00 0.00 80 1014.7
20260505235830 46 90 0.0 0.0 0.00 0.00 0.00 80 1014.7
20260505235102 46 34 0.0 0.0 0.00 0.00 0.00 80 1014.8
20260505234557 46 115 0.0 0.0 0.00 0.00 0.00 80 1014.8
20260505234303 46 82 0.0 0.0 0.00 0.00 0.00 80 1014.7
20260505234141 46 50 0.0 0.0 0.00 0.00 0.00 80 1014.8
20260505233310 46 134 0.0 0.0 0.00 0.00 0.00 79 1014.8
20260505232541 46 59 0.0 0.0 0.00 0.00 0.00 79 1014.8
20260505232042 46 119 0.0 0.0 0.00 0.00 0.00 79 1014.8
20260505231538 46 47 0.0 0.0 0.00 0.00 0.00 79 1014.8
20260505231036 46 105 0.0 0.0 0.00 0.00 0.00 79 1014.8
20260505230537 47 119 0.0 0.0 0.00 0.00 0.00 78 1014.7
20260505230106 47 65 0.0 0.0 0.00 0.00 0.00 78 1014.8
20260505225536 47 80 0.0 0.9 0.00 0.00 0.00 78 1014.8
20260505225036 47 69 0.0 0.9 0.00 0.00 0.00 78 1014.8
20260505224534 47 74 0.0 0.0 0.00 0.00 0.00 78 1014.8
20260505224035 47 66 0.0 0.0 0.00 0.00 0.00 78 1014.8
20260505223535 47 60 0.0 0.0 0.00 0.00 0.00 78 1014.8
20260505223245 47 108 0.0 0.0 0.00 0.00 0.00 78 1014.8
20260505223131 47 57 0.0 0.0 0.00 0.00 0.00 78 1014.8
20260505222038 47 134 0.0 0.0 0.00 0.00 0.00 77 1014.9
20260505221531 47 88 0.0 0.0 0.00 0.00 0.00 77 1014.9
20260505221031 47 33 0.0 0.0 0.00 0.00 0.00 77 1014.8
20260505220530 47 123 0.0 0.0 0.00 0.00 0.00 77 1014.8
20260505220336 47 110 0.0 0.0 0.00 0.00 0.00 77 1014.8
20260505215526 47 54 0.0 0.0 0.00 0.00 0.00 76 1014.8
20260505215019 47 70 0.0 0.9 0.00 0.00 0.00 76 1014.8
20260505214518 47 39 0.0 0.9 0.00 0.00 0.00 76 1014.7
20260505214017 47 30 0.0 0.9 0.00 0.00 0.00 76 1014.7
20260505213742 48 96 0.0 0.9 0.00 0.00 0.00 76 1014.6
20260505213016 48 105 0.0 0.0 0.00 0.00 0.00 76 1014.6
20260505212516 48 65 0.0 0.9 0.00 0.00 0.00 76 1014.6
20260505212235 48 146 0.0 0.9 0.00 0.00 0.00 76 1014.6
20260505211515 48 65 0.0 0.0 0.00 0.00 0.00 76 1014.6
20260505211505 48 95 0.0 0.9 0.00 0.00 0.00 77 1014.6
20260505210512 48 55 0.0 0.9 0.00 0.00 0.00 77 1014.6
20260505210104 48 77 0.0 0.9 0.00 0.00 0.00 77 1014.6
20260505205514 48 34 0.0 0.9 0.00 0.00 0.00 77 1014.6
20260505205012 48 81 0.0 0.9 0.00 0.00 0.00 78 1014.6
20260505204512 49 36 0.0 0.0 0.00 0.00 0.00 79 1014.6
20260505204013 49 100 0.0 0.9 0.00 0.00 0.00 79 1014.5
20260505203513 49 122 0.0 0.9 0.00 0.00 0.00 79 1014.5
20260505203014 49 68 0.0 0.9 0.00 0.00 0.00 79 1014.5
20260505202516 49 117 0.0 0.0 0.00 0.00 0.00 79 1014.4
20260505202007 49 65 0.0 0.0 0.00 0.00 0.00 79 1014.4
20260505201725 49 103 0.0 0.0 0.00 0.00 0.00 79 1014.3
20260505200955 49 34 0.0 1.7 0.00 0.00 0.00 78 1014.3
20260505200450 50 102 0.0 1.7 0.00 0.00 0.00 78 1014.3
20260505195943 50 47 0.0 0.9 0.00 0.00 0.00 78 1014.2
20260505195437 50 71 0.0 0.9 0.00 0.00 0.00 78 1014.2
20260505195149 50 78 0.0 0.0 0.00 0.00 0.00 78 1014.1
20260505194425 50 26 0.0 0.0 0.00 0.00 0.00 78 1014.1
20260505194141 50 78 0.0 0.0 0.00 0.00 0.00 78 1014.0
20260505193414 50 82 0.0 0.0 0.00 0.00 0.00 78 1014.0
20260505192908 51 12 0.0 0.0 0.00 0.00 0.00 79 1013.9
20260505192402 51 80 0.0 0.0 0.00 0.00 0.00 79 1013.8
20260505191856 51 78 0.0 0.0 0.00 0.00 0.00 78 1013.8
20260505191349 51 94 0.0 0.0 0.00 0.00 0.00 78 1013.8
20260505191112 52 47 0.0 0.9 0.00 0.00 0.00 77 1013.8
20260505190345 52 71 0.0 0.9 0.00 0.00 0.00 77 1013.7
20260505185845 52 76 0.0 0.0 0.00 0.00 0.00 75 1013.7
20260505185345 52 49 0.0 0.0 0.00 0.00 0.00 75 1013.7
20260505184843 52 39 0.0 0.0 0.00 0.00 0.00 74 1013.7
20260505184343 52 312 0.0 0.0 0.00 0.00 0.00 74 1013.7
20260505184333 52 71 0.0 0.9 0.00 0.00 0.00 73 1013.6
20260505183341 52 328 0.0 0.0 0.00 0.00 0.00 72 1013.6
20260505182838 52 304 0.0 0.0 0.00 0.00 0.00 72 1013.6
20260505182339 53 25 0.0 0.0 0.00 0.00 0.00 72 1013.6
20260505181840 53 297 0.0 0.9 0.00 0.00 0.00 72 1013.6
20260505181336 53 50 0.0 0.9 0.00 0.00 0.00 71 1013.5
20260505180837 53 252 0.0 0.9 0.00 0.00 0.00 71 1013.6
20260505180339 53 27 0.0 0.9 0.00 0.00 0.00 71 1013.5
20260505175835 53 22 0.0 0.0 0.00 0.00 0.00 71 1013.4
20260505175336 53 346 0.0 0.9 0.00 0.00 0.00 71 1013.4
20260505174835 53 327 0.0 0.9 0.00 0.00 0.00 71 1013.4
20260505174333 53 295 0.0 0.9 0.00 0.00 0.00 70 1013.5
20260505173831 53 326 0.0 0.9 0.00 0.00 0.00 70 1013.4
20260505173325 54 294 0.0 0.9 0.00 0.00 0.00 70 1013.4
20260505173044 54 347 0.0 0.0 0.00 0.00 0.00 71 1013.4
20260505172314 54 259 0.0 0.9 0.00 0.00 0.00 71 1013.5
20260505171806 54 301 0.0 0.9 0.00 0.00 0.00 71 1013.5
20260505171300 54 300 0.0 0.0 0.00 0.00 0.00 70 1013.6
20260505170754 54 308 0.0 0.0 0.00 0.00 0.00 69 1013.5
20260505170249 55 322 0.0 0.0 0.00 0.00 0.00 69 1013.6
20260505165742 55 71 0.0 0.0 0.00 0.00 0.00 68 1013.5
20260505165718 55 329 0.0 0.0 0.00 0.00 0.00 66 1013.5
20260505164731 56 283 0.0 0.0 0.00 0.00 0.00 66 1013.5
20260505164441 56 280 0.0 0.0 0.00 0.00 0.00 65 1013.4
20260505163717 56 243 0.0 0.0 0.00 0.00 0.00 64 1013.4
20260505163215 57 100 0.0 0.0 0.00 0.00 0.00 63 1013.5
20260505162707 57 203 0.0 0.0 0.00 0.00 0.00 62 1013.5
20260505162201 57 81 0.0 0.0 0.00 0.00 0.00 63 1013.4
20260505161656 58 141 0.0 0.0 0.00 0.00 0.00 62 1013.4
20260505161150 58 58 0.0 0.0 0.00 0.00 0.00 62 1013.4
20260505160642 57 250 0.0 0.0 0.00 0.00 0.00 63 1013.3
20260505160138 57 149 0.0 0.0 0.00 0.00 0.00 62 1013.4
20260505153101 56 214 0.0 0.0 0.00 0.00 0.00 68 1013.4
20260505152821 56 134 0.0 0.0 0.00 0.00 0.00 69 1013.4
20260505152528 55 248 0.0 0.0 0.00 0.00 0.00 69 1013.5
20260505151543 55 323 0.0 0.0 0.00 0.00 0.00 68 1013.5
20260505151519 55 23 0.0 0.0 0.00 0.00 0.00 68 1013.6
20260505150604 55 240 0.0 0.0 0.00 0.00 0.00 69 1013.6
20260505150530 55 208 0.0 0.0 0.00 0.00 0.00 69 1013.6
20260505140639 55 297 0.0 0.9 0.00 0.00 0.00 70 1013.7
20260505130304 53 322 0.0 0.0 0.00 0.00 0.00 74 1013.9
20260505124745 53 57 0.0 0.0 0.00 0.00 0.00 74 1013.9
20260505124238 53 321 0.0 0.0 0.00 0.00 0.00 75 1013.9
20260505123733 53 27 0.0 0.0 0.00 0.00 0.00 75 1013.8
20260505123227 53 288 0.0 0.0 0.00 0.00 0.00 76 1013.8
20260505122939 53 220 0.0 0.0 0.00 0.00 0.00 75 1013.9
20260505122446 53 143 0.0 0.0 0.00 0.00 0.00 75 1013.9
20260505121708 53 127 0.0 0.0 0.00 0.00 0.00 73 1013.8
20260505121202 53 302 0.0 0.0 0.00 0.00 0.00 73 1013.9
20260505120658 53 65 0.0 0.0 0.00 0.00 0.00 72 1014.0
20260505120151 52 308 0.0 0.0 0.00 0.00 0.00 71 1014.0
20260505115647 52 308 0.0 0.0 0.00 0.00 0.00 72 1014.0
20260505115138 52 31 0.0 0.0 0.00 0.00 0.00 72 1014.0
20260505114632 52 69 0.0 0.0 0.00 0.00 0.00 73 1014.0
20260505114354 52 79 0.0 0.0 0.00 0.00 0.00 73 1014.1
20260505113846 52 65 0.0 0.0 0.00 0.00 0.00 73 1014.1
20260505113114 53 56 0.0 0.9 0.00 0.00 0.00 73 1014.2
20260505112608 53 66 0.0 0.9 0.00 0.00 0.00 72 1014.2
20260505112104 54 98 0.0 0.9 0.00 0.00 0.00 71 1014.1
20260505111557 54 322 0.0 0.9 0.00 0.00 0.00 69 1014.1
20260505111318 54 322 0.0 0.0 0.00 0.00 0.00 70 1014.0
20260505110544 53 309 0.0 0.0 0.00 0.00 0.00 71 1014.0
20260505110108 53 311 0.0 0.0 0.00 0.00 0.00 73 1014.1
20260505101951 51 294 0.0 0.9 0.00 0.00 0.00 77 1014.3
20260505101445 52 315 0.0 0.9 0.00 0.00 0.00 75 1014.3
20260505100937 53 297 0.0 0.0 0.00 0.00 0.00 73 1014.3
20260505100433 53 297 0.0 0.0 0.00 0.00 0.00 71 1014.2
20260505100156 54 271 0.0 0.0 0.00 0.00 0.00 70 1014.1
20260505095421 54 43 0.0 0.0 0.00 0.00 0.00 70 1014.1
20260505094914 54 33 0.0 0.0 0.00 0.00 0.00 72 1014.1
20260505094407 53 50 0.0 0.0 0.00 0.00 0.00 74 1014.1
20260505094127 53 269 0.0 0.0 0.00 0.00 0.00 74 1014.2
20260505093356 52 304 0.0 0.0 0.00 0.00 0.00 75 1014.2
20260505092850 52 99 0.0 0.0 0.00 0.00 0.00 77 1014.2
20260505092344 52 310 0.0 0.0 0.00 0.00 0.00 77 1014.2
20260505092057 51 329 0.0 0.0 0.00 0.00 0.00 78 1014.3
20260505091333 51 19 0.0 0.0 0.00 0.00 0.00 78 1014.3
20260505090825 51 59 0.0 0.0 0.00 0.00 0.00 80 1014.3
20260505090320 51 34 0.0 0.0 0.00 0.00 0.00 81 1014.3
20260505085814 51 61 0.0 0.0 0.00 0.00 0.00 82 1014.3
20260505085309 51 37 0.0 0.0 0.00 0.00 0.00 82 1014.3
20260505084804 51 60 0.0 0.0 0.00 0.00 0.00 83 1014.3
20260505084257 51 56 0.0 0.0 0.00 0.00 0.00 83 1014.3
20260505083751 51 61 0.0 0.0 0.00 0.00 0.00 84 1014.3
20260505083246 51 33 0.0 0.9 0.00 0.00 0.00 85 1014.3
20260505083000 51 300 0.0 0.9 0.00 0.00 0.00 85 1014.3
20260505082231 51 323 0.0 0.0 0.00 0.00 0.00 86 1014.4
20260505081727 51 308 0.0 0.0 0.00 0.00 0.00 86 1014.4
20260505081221 50 50 0.0 0.0 0.00 0.00 0.00 86 1014.4